Terminal Aerodrome Forecast
Issued by NWS Shreveport, LA

Home | Current Version | Previous Version | Text Only | Print | Product List | Glossary On
Versions: 1 2 3 4 5 6 7 8 9 10 11 12 13 14
000
FTUS44 KSHV 311700
TAFGGG
TAF
KGGG 311720Z 3118/0118 34011G18KT P6SM SKC
     FM312000 36013G23KT P6SM FEW040
     FM010000 01008KT P6SM SKC
     FM010500 01005KT P6SM SKC=

USA.gov is the U.S. government's official web portal to all federal, state and local government web resources and services.